Manistique, MI

11:24 PM EDT on July 20, 2017 (GMT -0400)
Schoolcraft County

Weather History for KISQ - November, 2012

Change the Weather History Date:

Sunday, November 11, 2012

  Actual Average Record
Temperature  
Mean Temperature 52 °F -  
Max Temperature 57 °F 40 °F 57 °F (1964)
Min Temperature 48 °F 27 °F 10 °F (1950)
Degree Days  
Heating Degree Days 12    
Growing Degree Days 2 (Base 50)    
Moisture  
Dew Point 48 °F    
Average Humidity 85    
Maximum Humidity 94    
Minimum Humidity 72    
Precipitation  
Precipitation 0.00 in - - ()
Sea Level Pressure  
Sea Level Pressure 29.74 in    
Wind  
Wind Speed 12 mph (South)    
Max Wind Speed 25 mph    
Max Gust Speed 38 mph    
Visibility 9 miles    
Events Rain    
Averages and records for this station are not official NWS values.
T = Trace of Precipitation, MM = Missing Value Source: NWS Daily Summary

Daily Weather History Graph

Daily Weather History Graph

Search for Another Location

Airport or City:

Trip Planner

Search our weather history database for the weather conditions in past years. The results will help you decide how hot, cold, wet, or windy it might be!

Date:

Astronomy

Nov. 11, 2012 Rise Set
Actual Time 7:40 AM EST 5:16 PM EST
Civil Twilight 7:07 AM EST 5:48 PM EST
Nautical Twilight 6:32 AM EST 6:24 PM EST
Astronomical Twilight 5:56 AM EST 7:00 PM EST
Moon 4:46 AM EST (11/11) 3:45 PM EST (11/11)
Length of Visible Light 10h 40m
Length of Day
9h 36m
Waning Crescent, 7% of the Moon is Illuminated
Nov 11
Waning Crescent
Nov 13
New
Nov 20
First Quarter
Nov 28
Full
Dec 6
Last Quarter

Hourly Weather History & Observations

Time (EST) Temp. Dew Point Humidity Pressure Visibility Wind Dir Wind Speed Gust Speed Precip Events Conditions
12:14 AM 48.2 °F 46.4 °F 93% 29.82 in 3.0 mi ESE 10.4 mph - N/A Rain Light Rain
12:35 AM 48.2 °F 46.4 °F 93% 29.82 in 3.0 mi ESE 9.2 mph - N/A Rain Light Rain
12:54 AM 48.2 °F 46.4 °F 93% 29.82 in 4.0 mi ESE 9.2 mph - N/A Rain Light Rain
1:15 AM 48.2 °F 46.4 °F 93% 29.83 in 4.0 mi ESE 8.1 mph - N/A Rain Light Rain
1:35 AM 48.2 °F 46.4 °F 93% 29.81 in 4.0 mi ESE 12.7 mph - N/A Rain Light Rain
1:54 AM 50.0 °F 46.4 °F 87% 29.81 in 4.0 mi SE 10.4 mph - N/A   Mostly Cloudy
2:15 AM 50.0 °F 46.4 °F 87% 29.81 in 4.0 mi SE 6.9 mph - N/A Rain Light Rain
2:35 AM 51.8 °F 48.2 °F 88% 29.81 in 7.0 mi SE 5.8 mph - N/A Rain Light Rain
2:54 AM 51.8 °F 48.2 °F 88% 29.82 in 10.0 mi SSE 4.6 mph - N/A   Scattered Clouds
3:15 AM 51.8 °F 48.2 °F 88% 29.82 in 10.0 mi South 5.8 mph - N/A Rain Light Rain
3:34 AM 53.6 °F 48.2 °F 82% 29.82 in 10.0 mi South 5.8 mph - N/A   Mostly Cloudy
3:55 AM 53.6 °F 48.2 °F 82% 29.81 in 10.0 mi South 8.1 mph - N/A   Mostly Cloudy
4:15 AM 53.6 °F 48.2 °F 82% 29.81 in 10.0 mi SSW 11.5 mph 17.3 mph N/A   Scattered Clouds
4:34 AM 53.6 °F 48.2 °F 82% 29.81 in 10.0 mi SSW 11.5 mph 20.7 mph N/A   Clear
4:55 AM 51.8 °F 48.2 °F 88% 29.80 in 10.0 mi SSW 10.4 mph 17.3 mph N/A   Scattered Clouds
5:14 AM 51.8 °F 48.2 °F 88% 29.81 in 10.0 mi SSW 8.1 mph - N/A   Clear
5:34 AM 51.8 °F 48.2 °F 88% 29.80 in 10.0 mi SSW 9.2 mph - N/A   Scattered Clouds
5:55 AM 51.8 °F 48.2 °F 88% 29.79 in 10.0 mi South 8.1 mph - N/A   Scattered Clouds
6:35 AM 51.8 °F 48.2 °F 88% 29.80 in 10.0 mi SSW 6.9 mph - N/A   Clear
6:55 AM 51.8 °F 46.4 °F 82% 29.80 in 10.0 mi SSW 6.9 mph - N/A   Clear
7:14 AM 51.8 °F 46.4 °F 82% 29.79 in 10.0 mi SSW 5.8 mph - N/A   Clear
7:35 AM 51.8 °F 48.2 °F 88% 29.79 in 10.0 mi SSW 6.9 mph - N/A   Clear
7:54 AM 51.8 °F 48.2 °F 88% 29.80 in 10.0 mi SSW 9.2 mph - N/A   Clear
8:35 AM 51.8 °F 48.2 °F 88% 29.80 in 10.0 mi SSW 10.4 mph - N/A   Clear
9:15 AM 53.6 °F 48.2 °F 82% 29.80 in 10.0 mi SSW 11.5 mph 16.1 mph N/A   Clear
9:34 AM 53.6 °F 48.2 °F 82% 29.80 in 10.0 mi SSW 12.7 mph 18.4 mph N/A   Clear
9:54 AM 53.6 °F 48.2 °F 82% 29.79 in 10.0 mi South 11.5 mph 18.4 mph N/A   Clear
10:15 AM 55.4 °F 48.2 °F 77% 29.79 in 10.0 mi South 12.7 mph 20.7 mph N/A   Clear
10:34 AM 55.4 °F 48.2 °F 77% 29.80 in 10.0 mi South 15.0 mph 23.0 mph N/A   Clear
10:55 AM 55.4 °F 48.2 °F 77% 29.79 in 10.0 mi South 15.0 mph 24.2 mph N/A   Clear
11:15 AM 55.4 °F 48.2 °F 77% 29.80 in 10.0 mi South 16.1 mph 21.9 mph N/A   Clear
11:34 AM 55.4 °F 48.2 °F 77% 29.80 in 10.0 mi SSW 17.3 mph 26.5 mph N/A   Scattered Clouds
11:55 AM 57.2 °F 48.2 °F 72% 29.78 in 10.0 mi SSW 17.3 mph 26.5 mph N/A   Mostly Cloudy
12:14 PM 55.4 °F 48.2 °F 77% 29.78 in 10.0 mi South 15.0 mph 25.3 mph N/A   Mostly Cloudy
12:35 PM 53.6 °F 48.2 °F 82% 29.77 in 10.0 mi SSW 17.3 mph 26.5 mph N/A   Overcast
1:15 PM 53.6 °F 48.2 °F 82% 29.76 in 10.0 mi South 16.1 mph 25.3 mph N/A   Overcast
1:35 PM 53.6 °F 48.2 °F 82% 29.75 in 10.0 mi South 18.4 mph 25.3 mph N/A   Overcast
1:54 PM 55.4 °F 48.2 °F 77% 29.73 in 10.0 mi South 18.4 mph 24.2 mph N/A   Overcast
2:15 PM 55.4 °F 48.2 °F 77% 29.73 in 10.0 mi South 19.6 mph 26.5 mph N/A   Overcast
2:34 PM 55.4 °F 48.2 °F 77% 29.71 in 10.0 mi South 25.3 mph 33.4 mph N/A   Overcast
3:15 PM 57.2 °F 50.0 °F 77% 29.69 in 10.0 mi South 23.0 mph 35.7 mph N/A   Overcast
3:34 PM 57.2 °F 50.0 °F 77% 29.70 in 10.0 mi South 20.7 mph 32.2 mph N/A   Mostly Cloudy
3:55 PM 57.2 °F 50.0 °F 77% 29.70 in 10.0 mi South 17.3 mph 26.5 mph N/A   Overcast
4:14 PM 55.4 °F 50.0 °F 82% 29.69 in 10.0 mi South 17.3 mph 26.5 mph N/A   Overcast
4:35 PM 55.4 °F 50.0 °F 82% 29.69 in 10.0 mi South 19.6 mph 27.6 mph N/A   Overcast
4:55 PM 55.4 °F 50.0 °F 82% 29.68 in 10.0 mi South 17.3 mph 26.5 mph N/A   Overcast
5:14 PM 55.4 °F 50.0 °F 82% 29.66 in 10.0 mi South 16.1 mph 25.3 mph N/A   Overcast
5:35 PM 55.4 °F 50.0 °F 82% 29.65 in 10.0 mi South 17.3 mph 29.9 mph N/A   Overcast
5:54 PM 55.4 °F 50.0 °F 82% 29.65 in 10.0 mi South 15.0 mph 25.3 mph N/A   Overcast
6:15 PM 55.4 °F 50.0 °F 82% 29.65 in 10.0 mi South 12.7 mph 23.0 mph N/A Rain Light Rain
6:35 PM 55.4 °F 48.2 °F 77% 29.65 in 10.0 mi SSW 12.7 mph - N/A Rain Light Rain
6:54 PM 53.6 °F 48.2 °F 82% 29.66 in 10.0 mi SSW 10.4 mph - N/A Rain Heavy Rain
7:15 PM 53.6 °F 50.0 °F 88% 29.64 in 10.0 mi South 12.7 mph 19.6 mph N/A Rain Light Rain
7:25 PM 53.6 °F 50.0 °F 88% 29.64 in 10.0 mi South 19.6 mph 26.5 mph N/A Rain Light Rain
7:55 PM 55.4 °F 51.8 °F 88% 29.63 in 10.0 mi SSW 24.2 mph 34.5 mph N/A   Overcast
8:15 PM 53.6 °F 51.8 °F 94% 29.64 in 4.0 mi SSW 20.7 mph 38.0 mph N/A   Overcast
8:35 PM 51.8 °F 50.0 °F 94% 29.64 in 5.0 mi SSW 18.4 mph 31.1 mph N/A   Overcast
8:55 PM 51.8 °F 48.2 °F 88% 29.66 in 7.0 mi SW 11.5 mph 20.7 mph N/A   Overcast
9:15 PM 51.8 °F 48.2 °F 88% 29.66 in 7.0 mi SW 10.4 mph - N/A   Overcast
9:17 PM 51.8 °F 48.2 °F 88% 29.67 in 7.0 mi SSW 10.4 mph - N/A Rain Light Rain
9:34 PM 51.8 °F 48.2 °F 88% 29.67 in 7.0 mi SSW 10.4 mph 16.1 mph N/A Rain Rain
9:54 PM 50.0 °F 48.2 °F 94% 29.68 in 7.0 mi SSW 11.5 mph - N/A Rain Light Rain
10:15 PM 50.0 °F 48.2 °F 94% 29.68 in 10.0 mi South 10.4 mph 17.3 mph N/A Rain Light Rain
10:34 PM 50.0 °F 48.2 °F 94% 29.69 in 10.0 mi South 11.5 mph 18.4 mph N/A Rain Light Rain
10:55 PM 51.8 °F 48.2 °F 88% 29.68 in 10.0 mi South 12.7 mph 19.6 mph N/A Rain Light Rain
11:14 PM 51.8 °F 48.2 °F 88% 29.70 in 10.0 mi South 12.7 mph 19.6 mph N/A Rain Light Rain
11:34 PM 50.0 °F 48.2 °F 94% 29.70 in 7.0 mi South 11.5 mph - N/A Rain Light Rain
11:55 PM 50.0 °F 48.2 °F 94% 29.70 in 7.0 mi South 12.7 mph 20.7 mph N/A Rain Light Rain